Date String (YYYY-MM-DD hh:mm:ss) UTC,Instrument flags,absolute air pressure of the measurement (hPa),sample flow rate (lpm),inlet stack bypass flow (lpm),air temperature of the measurement (°C),ambient temperature measured by the external sensor (°C),aerosol sample conditioner tube jacket temperature (°C),OPC LED temperature (°C),internal box temperature (°C),relative humidity of the measurement (%),span deviation,mass concentration of particles derived from Lorenz-Mie calculation of OPC scattering (μg/m³),mass concentration of particles derived from Lorenz-Mie calculation of OPC scattering (μg/m³),mass concentration of particles derived from Lorenz-Mie calculation of OPC scattering (μg/m³)
DateTimeUTC,F1_M11,P_M11,Q1_M11,Q2_M11,T1_M11,T2_M11,T3_M11,T4_M11,T5_M11,U1_M11,ZSPAN_M11,X0_M11,X2_M11,X1_M11
2023-11-21 09:00:00,SystemResetWarning,0841.7,5.00,000.00,020.4,019.6,000.0,028.6,021.6,16.9,0000.0,0003.39,0002.06,0001.66
2023-11-21 09:01:00,SystemResetWarning,0841.8,5.00,000.00,020.4,019.6,000.0,028.6,021.6,16.9,0000.0,0003.37,0002.06,0001.68
2023-11-21 09:02:00,SystemResetWarning,0841.7,4.99,000.00,020.4,019.6,000.0,028.6,021.6,16.9,0000.0,0003.31,0002.05,0001.69
2023-11-21 09:03:00,SystemResetWarning,0841.7,4.99,000.00,020.4,019.7,000.0,028.7,021.6,16.9,0000.0,0003.15,0002.04,0001.69
2023-11-21 09:04:00,SystemResetWarning,0841.8,4.99,000.00,020.4,019.7,000.0,028.7,021.7,16.9,0000.0,0003.31,0002.02,0001.70
2023-11-21 09:05:00,SystemResetWarning,0841.8,5.00,000.00,020.4,019.7,000.0,028.7,021.7,16.9,0000.0,0003.40,0002.01,0001.70
2023-11-21 09:06:00,SystemResetWarning,0841.8,5.00,000.00,020.4,019.7,000.0,028.7,021.7,16.9,0000.0,0003.36,0001.99,0001.72
2023-11-21 09:07:00,SystemResetWarning,0841.8,5.00,000.00,020.4,019.7,000.0,028.7,021.7,16.9,0000.0,0003.31,0001.98,0001.72
2023-11-21 09:08:00,SystemResetWarning,0841.8,5.01,000.00,020.4,019.7,000.0,028.7,021.7,16.8,0000.0,0003.30,0001.98,0001.72
2023-11-21 09:09:00,SystemResetWarning,0841.8,5.00,000.00,020.4,019.7,000.0,028.7,021.7,16.9,0000.0,0003.35,0002.00,0001.72
2023-11-21 09:10:00,SystemResetWarning,0841.7,5.00,000.00,020.5,019.7,000.0,028.7,021.7,16.9,0000.0,0003.50,0002.04,0001.72
2023-11-21 09:11:00,SystemResetWarning,0841.7,5.00,000.00,020.5,019.7,000.0,028.7,021.7,16.9,0000.0,0003.44,0002.06,0001.71
2023-11-21 09:12:00,SystemResetWarning,0841.8,5.00,000.00,020.5,019.7,000.0,028.7,021.7,16.8,0000.0,0003.57,0002.08,0001.70
2023-11-21 09:13:00,SystemResetWarning,0841.8,4.99,000.00,020.5,019.7,000.0,028.7,021.7,16.8,0000.0,0003.64,0002.09,0001.69
2023-11-21 09:14:00,SystemResetWarning,0841.8,4.99,000.00,020.5,019.7,000.0,028.7,021.7,16.8,0000.0,0003.63,0002.05,0001.68
2023-11-21 09:15:00,SystemResetWarning,0841.8,4.99,000.00,020.5,019.7,000.0,028.7,021.7,16.7,0000.0,0003.49,0002.08,0001.68
2023-11-21 09:16:00,SystemResetWarning,0841.8,5.01,000.00,020.5,019.7,000.0,028.7,021.7,16.6,0000.0,0003.80,0002.16,0001.69
2023-11-21 09:17:00,SystemResetWarning,0841.8,5.01,000.00,020.5,019.7,000.0,028.7,021.7,16.5,0000.0,0004.00,0002.17,0001.68
2023-11-21 09:18:00,SystemResetWarning,0841.8,5.00,000.00,020.5,019.7,000.0,028.7,021.7,16.4,0000.0,0004.10,0002.19,0001.67
2023-11-21 09:19:00,SystemResetWarning,0841.8,5.01,000.00,020.5,019.7,000.0,028.7,021.7,16.4,0000.0,0004.16,0002.19,0001.69
2023-11-21 09:20:00,SystemResetWarning,0841.8,4.99,000.00,020.5,019.8,000.0,028.7,021.7,16.4,0000.0,0003.97,0002.16,0001.70
2023-11-21 09:21:00,SystemResetWarning,0841.8,5.00,000.00,020.5,019.8,000.0,028.7,021.7,16.4,0000.0,0003.90,0002.16,0001.69
2023-11-21 09:22:00,SystemResetWarning,0841.8,5.00,000.00,020.5,019.8,000.0,028.7,021.7,16.5,0000.0,0003.78,0002.14,0001.70
2023-11-21 09:23:00,SystemResetWarning,0841.8,5.00,000.00,020.5,019.8,000.0,028.8,021.7,16.6,0000.0,0003.64,0002.12,0001.70
2023-11-21 09:24:00,SystemResetWarning,0841.8,5.00,000.00,020.5,019.8,000.0,028.8,021.8,16.6,0000.0,0003.58,0002.11,0001.69
2023-11-21 09:25:00,SystemResetWarning,0841.8,5.01,000.00,020.5,019.8,000.0,028.8,021.8,16.7,0000.0,0003.51,0002.11,0001.70
2023-11-21 09:26:00,SystemResetWarning,0841.7,5.01,000.00,020.5,019.8,000.0,028.8,021.7,16.7,0000.0,0004.22,0002.10,0001.70
2023-11-21 09:27:00,SystemResetWarning,0841.8,5.00,000.00,020.5,019.8,000.0,028.8,021.7,16.7,0000.0,0004.78,0002.07,0001.69
2023-11-21 09:28:00,SystemResetWarning,0841.8,5.00,000.00,020.5,019.7,000.0,028.8,021.7,16.8,0000.0,0005.14,0002.07,0001.71
2023-11-21 09:29:00,SystemResetWarning,0841.8,5.01,000.00,020.5,019.7,000.0,028.8,021.7,16.8,0000.0,0005.43,0002.07,0001.72
2023-11-21 09:30:00,SystemResetWarning,0841.8,5.00,000.00,020.5,019.7,000.0,028.8,021.7,17.0,0000.0,0005.42,0002.08,0001.72
2023-11-21 09:31:00,SystemResetWarning,0841.9,5.00,000.00,020.5,019.7,000.0,028.8,021.8,17.2,0000.0,0005.50,0002.09,0001.73
2023-11-21 09:32:00,SystemResetWarning,0841.8,4.99,000.00,020.5,019.7,000.0,028.8,021.7,17.3,0000.0,0005.65,0002.12,0001.76
2023-11-21 09:33:00,SystemResetWarning,0841.8,5.00,000.00,020.5,019.7,000.0,028.8,021.7,17.3,0000.0,0006.48,0002.18,0001.78
2023-11-21 09:34:00,SystemResetWarning,0841.7,5.00,000.00,020.5,019.7,000.0,028.8,021.7,17.2,0000.0,0007.09,0002.29,0001.82
2023-11-21 09:35:00,SystemResetWarning,0841.7,4.99,000.00,020.5,019.7,000.0,028.8,021.7,17.2,0000.0,0007.25,0002.37,0001.86
2023-11-21 09:36:00,SystemResetWarning,0841.7,5.00,000.00,020.5,019.7,000.0,028.8,021.7,17.2,0000.0,0007.68,0002.46,0001.91
2023-11-21 09:37:00,SystemResetWarning,0841.7,5.00,000.00,020.5,019.7,000.0,028.8,021.7,17.3,0000.0,0007.19,0002.51,0001.97
2023-11-21 09:38:00,SystemResetWarning,0841.7,5.00,000.00,020.5,019.7,000.0,028.8,021.7,17.2,0000.0,0006.50,0002.55,0002.03
2023-11-21 09:39:00,SystemResetWarning,0841.7,5.01,000.00,020.5,019.7,000.0,028.8,021.7,17.2,0000.0,0006.03,0002.59,0002.07
2023-11-21 09:40:00,SystemResetWarning,0841.8,5.00,000.00,020.5,019.7,000.0,028.8,021.7,17.2,0000.0,0005.70,0002.61,0002.11
2023-11-21 09:41:00,SystemResetWarning,0841.8,4.99,000.00,020.5,019.7,000.0,028.8,021.7,17.2,0000.0,0005.73,0002.67,0002.15
2023-11-21 09:42:00,SystemResetWarning,0841.7,4.99,000.00,020.5,019.6,000.0,028.8,021.7,17.2,0000.0,0005.85,0002.71,0002.18
2023-11-21 09:43:00,SystemResetWarning,0841.7,5.00,000.00,020.5,019.6,000.0,028.8,021.7,17.2,0000.0,0005.69,0002.73,0002.23
2023-11-21 09:44:00,SystemResetWarning,0841.7,5.00,000.00,020.5,019.6,000.0,028.8,021.6,17.3,0000.0,0004.97,0002.72,0002.26
2023-11-21 09:45:00,SystemResetWarning,0841.6,5.00,000.00,020.5,019.6,000.0,028.8,021.6,17.2,0000.0,0004.44,0002.66,0002.27
2023-11-21 09:46:00,SystemResetWarning,0841.6,5.00,000.00,020.5,019.6,000.0,028.8,021.7,17.2,0000.0,0004.30,0002.63,0002.28
2023-11-21 09:47:00,SystemResetWarning,0841.6,5.01,000.00,020.4,019.5,000.0,028.8,021.6,17.2,0000.0,0003.56,0002.56,0002.27
2023-11-21 09:48:00,SystemResetWarning,0841.6,5.01,000.00,020.4,019.5,000.0,028.8,021.6,17.2,0000.0,0003.50,0002.53,0002.24
2023-11-21 09:49:00,SystemResetWarning,0841.6,5.00,000.00,020.4,019.5,000.0,028.8,021.6,17.2,0000.0,0003.52,0002.53,0002.23
2023-11-21 09:50:00,SystemResetWarning,0841.6,5.00,000.00,020.4,019.5,000.0,028.8,021.6,17.1,0000.0,0003.43,0002.52,0002.24
2023-11-21 09:51:00,SystemResetWarning,0841.6,5.00,000.00,020.4,019.5,000.0,028.8,021.6,17.1,0000.0,0003.52,0002.51,0002.23
2023-11-21 09:52:00,SystemResetWarning,0841.6,5.01,000.00,020.4,019.4,000.0,028.7,021.6,17.1,0000.0,0003.92,0002.48,0002.22
2023-11-21 09:53:00,SystemResetWarning,0841.7,5.00,000.00,020.3,019.4,000.0,028.7,021.6,17.1,0000.0,0003.93,0002.45,0002.23
2023-11-21 09:54:00,SystemResetWarning,0841.7,5.00,000.00,020.3,019.4,000.0,028.7,021.6,17.1,0000.0,0003.88,0002.42,0002.21
2023-11-21 09:55:00,SystemResetWarning,0841.7,5.00,000.00,020.3,019.4,000.0,028.7,021.5,17.1,0000.0,0003.84,0002.40,0002.20
2023-11-21 09:56:00,SystemResetWarning,0841.7,5.01,000.00,020.3,019.4,000.0,028.7,021.5,17.1,0000.0,0003.78,0002.38,0002.19
2023-11-21 09:57:00,SystemResetWarning,0841.7,5.00,000.00,020.3,019.4,000.0,028.7,021.5,17.1,0000.0,0003.84,0002.38,0002.17
2023-11-21 09:58:00,SystemResetWarning,0841.7,5.00,000.00,020.3,019.3,000.0,028.7,021.5,17.1,0000.0,0003.86,0002.38,0002.15
2023-11-21 09:59:00,SystemResetWarning,0841.6,4.99,000.00,020.3,019.3,000.0,028.7,021.5,17.1,0000.0,0003.93,0002.41,0002.15
